K5KVN-2 Weather Reports


time (UTC)temp
C
wind
direction
speed
KPH
gust
KPH
rain 1hr
cm
rain 24hr
cm
rain mn
cm
humidity
%
barometer
mb
20260903190659 35 164 14.5 32.2 0.00 0.00 0.00 42 1014.5
20260903185658 35 196 14.5 25.7 0.00 0.00 0.00 42 1014.6
20260903184655 35 175 14.5 29.0 0.00 0.00 0.00 42 1014.9
20260903183657 35 155 17.7 32.2 0.00 0.00 0.00 41 1014.9
20260903182654 35 165 17.7 35.4 0.00 0.00 0.00 42 1015.1
20260903181655 35 163 17.7 29.0 0.00 0.00 0.00 43 1015.1
20260903180651 35 163 16.1 35.4 0.00 0.00 0.00 43 1015.2
20260903175651 34 182 16.1 27.4 0.00 0.00 0.00 43 1015.6
20260903174648 34 171 9.7 22.5 0.00 0.00 0.00 45 1015.6
20260903173645 34 176 14.5 29.0 0.00 0.00 0.00 46 1015.9
20260903172645 34 194 14.5 25.7 0.00 0.00 0.00 46 1016.0
20260903172126 33 186 14.5 25.7 0.00 0.00 0.00 47 1016.2
20260903170644 33 175 14.5 27.4 0.00 0.00 0.00 48 1016.3
20260903165637 33 146 14.5 22.5 0.00 0.00 0.00 49 1016.4
20260903164637 33 177 14.5 27.4 0.00 0.00 0.00 49 1016.5
20260903162638 32 200 14.5 29.0 0.00 0.00 0.00 51 1016.5
20260903161637 32 205 17.7 29.0 0.00 0.00 0.00 51 1016.6
20260903160637 32 179 16.1 32.2 0.00 0.00 0.00 51 1016.6
20260903155639 31 163 17.7 27.4 0.00 0.00 0.00 52 1016.7
20260903154637 31 183 14.5 25.7 0.00 0.00 0.00 53 1016.7
20260903153638 31 174 12.9 22.5 0.00 0.00 0.00 54 1016.8
20260903152632 31 167 12.9 27.4 0.00 0.00 0.00 55 1016.8
20260903151633 30 178 11.3 22.5 0.00 0.00 0.00 56 1017.0
20260903145631 30 165 9.7 24.1 0.00 0.00 0.00 59 1017.0
20260903144630 29 156 9.7 20.9 0.00 0.00 0.00 61 1017.0
20260903143630 28 157 9.7 16.1 0.00 0.00 0.00 63 1017.0
20260903142630 28 158 12.9 17.7 0.00 0.00 0.00 64 1017.2
20260903142117 28 140 12.9 22.5 0.00 0.00 0.00 65 1017.2
20260903140630 27 153 11.3 22.5 0.00 0.00 0.00 67 1017.3
20260903135629 27 153 9.7 17.7 0.00 0.00 0.00 68 1017.4
20260903134629 27 180 9.7 17.7 0.00 0.00 0.00 69 1017.5
20260903134112 26 165 8.0 16.1 0.00 0.00 0.00 72 1017.5
20260903132630 26 168 6.4 9.7 0.00 0.00 0.00 73 1017.5
20260903132109 26 148 4.8 6.4 0.00 0.00 0.00 75 1017.3
20260903130629 25 172 4.8 8.0 0.00 0.00 0.00 75 1017.3
20260903125630 25 157 3.2 6.4 0.00 0.00 0.00 78 1017.4
20260903124632 24 147 3.2 6.4 0.00 0.00 0.00 81 1017.3
20260903124110 23 126 0.0 4.8 0.00 0.00 0.00 83 1017.3
20260903122630 23 132 0.0 0.0 0.00 0.00 0.00 83 1017.2
20260903121628 23 132 0.0 0.0 0.00 0.00 0.00 84 1017.0
20260903120626 22 132 0.0 0.0 0.00 0.00 0.00 84 1016.9
20260903115625 22 132 0.0 0.0 0.00 0.00 0.00 85 1016.8
20260903114625 22 132 0.0 0.0 0.00 0.00 0.00 84 1016.9
20260903113625 23 132 0.0 0.0 0.00 0.00 0.00 83 1016.8
20260903112626 23 132 0.0 0.0 0.00 0.00 0.00 82 1016.6
20260903111627 23 132 0.0 0.0 0.00 0.00 0.00 82 1016.6
20260903105626 24 132 0.0 0.0 0.00 0.00 0.00 80 1016.6
20260903104623 24 132 0.0 0.0 0.00 0.00 0.00 79 1016.5
20260903103624 23 132 0.0 0.0 0.00 0.00 0.00 80 1016.4
20260903102617 23 132 0.0 3.2 0.00 0.00 0.00 80 1016.4
20260903101617 24 136 1.6 6.4 0.00 0.00 0.00 80 1016.5
20260903100618 24 131 3.2 6.4 0.00 0.00 0.00 80 1016.4
20260903095617 23 117 3.2 9.7 0.00 0.00 0.00 80 1016.4
20260903094617 24 128 3.2 4.8 0.00 0.00 0.00 80 1016.4
20260903093618 25 119 0.0 6.4 0.00 0.00 0.00 77 1016.4
20260903093056 25 124 0.0 0.0 0.00 0.00 0.00 75 1016.4
20260903091618 25 165 0.0 0.0 0.00 0.00 0.00 75 1016.5
20260903090618 25 155 0.0 0.0 0.00 0.00 0.00 74 1016.3
20260903085614 25 130 0.0 0.0 0.00 0.00 0.00 74 1016.3
20260903084614 26 130 0.0 0.0 0.00 0.00 0.00 73 1016.3
20260903083613 26 130 0.0 0.0 0.00 0.00 0.00 73 1016.3
20260903083114 26 133 4.8 6.4 0.00 0.00 0.00 73 1016.2
20260903081614 25 132 4.8 6.4 0.00 0.00 0.00 73 1016.3
20260903080612 25 130 3.2 4.8 0.00 0.00 0.00 73 1016.1
20260903075613 26 123 3.2 4.8 0.00 0.00 0.00 72 1016.2
20260903074608 26 131 1.6 4.8 0.00 0.00 0.00 71 1016.2
20260903073608 26 136 1.6 3.2 0.00 0.00 0.00 70 1016.2
20260903072609 26 140 3.2 4.8 0.00 0.00 0.00 70 1016.2
20260903071609 26 134 3.2 4.8 0.00 0.00 0.00 70 1016.2
20260903070604 26 152 3.2 6.4 0.00 0.00 0.00 69 1016.1
20260903065605 26 150 4.8 8.0 0.00 0.00 0.00 69 1016.1
20260903064604 26 184 4.8 9.7 0.00 0.00 0.00 68 1016.2
20260903063604 26 180 1.6 8.0 0.00 0.00 0.00 68 1016.1
20260903063041 26 192 0.0 0.0 0.00 0.00 0.00 69 1016.1
20260903061603 26 171 0.0 0.0 0.00 0.00 0.00 70 1015.9
20260903060603 26 147 0.0 0.0 0.00 0.00 0.00 69 1016.0
20260903055602 26 124 0.0 0.0 0.00 0.00 0.00 69 1016.0
20260903054603 26 132 0.0 0.0 0.00 0.00 0.00 68 1016.1
20260903053601 27 132 0.0 0.0 0.00 0.00 0.00 65 1016.0
20260903052603 28 142 0.0 0.0 0.00 0.00 0.00 63 1015.9
20260903051601 28 133 0.0 0.0 0.00 0.00 0.00 62 1015.9
20260903050600 28 133 0.0 0.0 0.00 0.00 0.00 61 1015.9
20260903045601 28 133 0.0 1.6 0.00 0.00 0.00 60 1015.7
20260903044603 28 133 3.2 4.8 0.00 0.00 0.00 60 1015.6
20260903043601 29 132 4.8 6.4 0.00 0.00 0.00 60 1015.7
20260903042602 29 144 4.8 11.3 0.00 0.00 0.00 59 1015.6
20260903041602 29 141 4.8 8.0 0.00 0.00 0.00 58 1015.9
20260903040604 29 143 6.4 9.7 0.00 0.00 0.00 58 1016.0
20260903035603 29 132 6.4 12.9 0.00 0.00 0.00 57 1015.9
20260903034601 30 136 6.4 12.9 0.00 0.00 0.00 57 1015.9
20260903033602 30 131 6.4 11.3 0.00 0.00 0.00 57 1015.9
20260903032602 30 144 6.4 12.9 0.00 0.00 0.00 56 1015.9
20260903031601 30 134 8.0 11.3 0.00 0.00 0.00 56 1015.7
20260903030601 30 132 6.4 11.3 0.00 0.00 0.00 56 1015.9
20260903025601 30 149 6.4 11.3 0.00 0.00 0.00 56 1015.7
20260903024601 30 123 4.8 8.0 0.00 0.00 0.00 55 1015.9
20260903023601 31 133 6.4 11.3 0.00 0.00 0.00 54 1015.5
20260903022601 31 128 6.4 12.9 0.00 0.00 0.00 54 1015.5
20260903021603 31 155 6.4 12.9 0.00 0.00 0.00 53 1015.4
20260903020557 31 154 8.0 14.5 0.00 0.00 0.00 53 1015.3
20260903015557 31 133 8.0 12.9 0.00 0.00 0.00 52 1015.0
20260903014556 31 126 8.0 14.5 0.00 0.00 0.00 51 1014.9
20260903013601 31 166 8.0 17.7 0.00 0.00 0.00 51 1014.8
20260903012559 32 154 6.4 12.9 0.00 0.00 0.00 50 1014.7
20260903012041 32 133 6.4 9.7 0.00 0.00 0.00 49 1014.5
20260903010558 32 150 6.4 11.3 0.00 0.00 0.00 48 1014.5
20260903005556 33 135 9.7 16.1 0.00 0.00 0.00 47 1014.4
20260903004558 33 152 9.7 20.9 0.00 0.00 0.00 46 1014.4
20260903004043 33 119 8.0 11.3 0.00 0.00 0.00 45 1014.3
20260903003024 33 123 8.0 16.1 0.00 0.00 0.00 44 1014.2
20260903002024 34 121 8.0 16.1 0.00 0.00 0.00 43 1014.2
20260903000550 34 156 9.7 14.5 0.00 0.00 0.00 42 1014.2
20260902235548 35 182 8.0 20.9 0.00 0.00 0.00 40 1014.2
20260902234548 35 184 11.3 17.7 0.00 0.00 0.00 40 1014.2
20260902233549 35 163 12.9 19.3 0.00 0.00 0.00 39 1014.2
20260902232548 35 178 12.9 22.5 0.00 0.00 0.00 40 1014.3
20260902231549 35 162 12.9 19.3 0.00 0.00 0.00 39 1014.4
20260902230547 35 183 11.3 22.5 0.00 0.00 0.00 38 1014.4
20260902225547 35 118 3.2 14.5 0.00 0.00 0.00 41 1014.3
20260902224545 35 111 4.8 9.7 0.00 0.00 0.00 41 1014.4
20260902223544 35 135 6.4 12.9 0.00 0.00 0.00 40 1014.5
20260902222541 35 128 8.0 14.5 0.00 0.00 0.00 38 1014.7
20260902221544 36 123 8.0 12.9 0.00 0.00 0.00 37 1014.7
20260902220543 35 144 6.4 16.1 0.00 0.00 0.00 38 1014.8
20260902215536 35 113 8.0 14.5 0.00 0.00 0.00 38 1014.8
20260902215014 36 121 11.3 17.7 0.00 0.00 0.00 37 1014.9
20260902213535 36 159 12.9 24.1 0.00 0.00 0.00 37 1015.0
20260902212535 36 116 6.4 17.7 0.00 0.00 0.00 38 1014.8
20260902211535 35 120 6.4 12.9 0.00 0.00 0.00 40 1015.2
20260902210530 35 149 8.0 17.7 0.00 0.00 0.00 39 1015.2
20260902205529 35 77 4.8 11.3 0.00 0.00 0.00 40 1015.1
20260902204530 35 121 9.7 14.5 0.00 0.00 0.00 40 1015.3
20260902204019 35 153 9.7 20.9 0.00 0.00 0.00 39 1015.3
20260902203017 36 162 4.8 17.7 0.00 0.00 0.00 38 1015.5
20260902201530 36 123 8.0 16.1 0.00 0.00 0.00 37 1015.5
20260902201023 36 178 4.8 17.7 0.00 0.00 0.00 37 1015.7
20260902195531 36 57 1.6 4.8 0.00 0.00 0.00 38 1015.9
20260902194531 35 144 4.8 12.9 0.00 0.00 0.00 40 1016.2
20260902193529 36 136 9.7 19.3 0.00 0.00 0.00 38 1016.3
20260902192531 37 86 4.8 16.1 0.00 0.00 0.00 35 1016.4
20260902191532 36 182 8.0 19.3 0.00 0.00 0.00 35 1016.5